TimeMST,TemperatureF,Dew PointF,Humidity,Sea Level PressureIn,VisibilityMPH,Wind Direction,Wind SpeedMPH,Gust SpeedMPH,PrecipitationIn,Events,Conditions,WindDirDegrees,DateUTC
12:55 AM,53.6,23.0,30,30.12,10.0,South,5.8,-,N/A,,Clear,190,2012-11-23 07:55:00
1:55 AM,53.6,24.8,33,30.13,10.0,SSW,4.6,-,N/A,,Clear,200,2012-11-23 08:55:00
2:55 AM,51.8,24.8,35,30.14,10.0,Calm,Calm,-,N/A,,Clear,0,2012-11-23 09:55:00
3:55 AM,50.0,24.8,37,30.14,10.0,SSE,4.6,-,N/A,,Clear,160,2012-11-23 10:55:00
4:55 AM,50.0,24.8,37,30.15,10.0,SE,3.5,-,N/A,,Clear,140,2012-11-23 11:55:00
5:55 AM,53.6,21.2,28,30.17,10.0,ESE,3.5,-,N/A,,Clear,110,2012-11-23 12:55:00
6:55 AM,51.8,23.0,33,30.18,10.0,SSE,5.8,-,N/A,,Clear,150,2012-11-23 13:55:00
7:55 AM,57.2,23.0,27,30.20,10.0,Variable,2.3,-,N/A,,Clear,0,2012-11-23 14:55:00
8:55 AM,64.4,24.8,22,30.20,10.0,Variable,5.8,-,N/A,,Clear,0,2012-11-23 15:55:00
9:55 AM,66.2,24.8,21,30.21,10.0,ENE,6.9,-,N/A,,Clear,60,2012-11-23 16:55:00
10:55 AM,69.8,24.8,18,30.20,10.0,SE,8.1,-,N/A,,Partly Cloudy,130,2012-11-23 17:55:00
11:55 AM,71.6,26.6,19,30.18,10.0,Variable,2.3,-,N/A,,Partly Cloudy,0,2012-11-23 18:55:00
12:55 PM,73.4,28.4,19,30.15,10.0,East,9.2,-,N/A,,Partly Cloudy,90,2012-11-23 19:55:00
1:55 PM,73.4,30.2,20,30.13,10.0,SSE,4.6,16.1,N/A,,Partly Cloudy,160,2012-11-23 20:55:00
2:55 PM,73.4,30.2,20,30.12,10.0,Variable,5.8,-,N/A,,Partly Cloudy,0,2012-11-23 21:55:00
3:55 PM,73.4,30.2,20,30.12,10.0,East,12.7,-,N/A,,Partly Cloudy,80,2012-11-23 22:55:00
4:55 PM,69.8,30.2,23,30.14,10.0,East,12.7,-,N/A,,Clear,90,2012-11-23 23:55:00
5:55 PM,64.4,30.2,28,30.15,10.0,East,9.2,-,N/A,,Clear,100,2012-11-24 00:55:00
6:55 PM,60.8,30.2,31,30.18,10.0,SE,4.6,-,N/A,,Clear,140,2012-11-24 01:55:00
7:55 PM,59.0,30.2,34,30.18,10.0,SSE,6.9,-,N/A,,Clear,150,2012-11-24 02:55:00
8:55 PM,57.2,30.2,36,30.18,10.0,SSE,11.5,-,N/A,,Clear,160,2012-11-24 03:55:00
9:55 PM,57.2,30.2,36,30.30,10.0,SSE,8.1,-,N/A,,Clear,150,2012-11-24 04:55:00
10:56 PM,55.9,28.0,34,30.17,10.0,South,11.5,-,N/A,,Clear,170,2012-11-24 05:56:00
11:56 PM,53.1,27.0,37,30.17,10.0,SE,4.6,-,N/A,,Clear,130,2012-11-24 06:56:00